User: anonymous   Login
Location: Unspecified
(0.0000°N, 0.0000°E)
Time: 22:23:33
(UTC+00:00)
Language:

DMSP F15 (USA 147) - Orbit

View from above orbital plane
View from above orbital plane
View from above satellite
View from above satellite

Ground track
Ground track

The orbit data is extracted from the following two-line orbital elements,

1 25991U 99067A   17302.18069060 0.00000000  00000-0  00000-0 0    03
2 25991  98.8283 258.5130 0011996 315.4574  44.5425 14.16584606    00
Epoch (UTC): 29 October 2017 04:20:11
Eccentricity: 0.0011996
inclination: 98.8283°
perigee height: 828 km
apogee height: 845 km
right ascension of ascending node: 258.5130°
argument of perigee: 315.4574°
revolutions per day: 14.16584606
mean anomaly at epoch: 44.5425°
orbit number at epoch: 0

The dashed part of the orbit path shows where the satellite is in the earth's shadow,  

DLR